SAS2586 LEBL-ESSA

Flight info

Callsign SAS2586
Flight time N/A
Altitude FL380
Route DALIN N870 DIBER DCT ADITA DCT MAXIR DCT LUSOL DCT BODRU DCT OKTET DCT IRMAR DCT KINES DCT VANAS DCT ESOKO DCT GODRA DCT LOKTA DCT TEDGO DCT HAREM DCT LOHRE DCT BERXO DCT MAKEL DCT MIKNA N851 PELUP Z226 NILUG
Aircraft B738/M-S/N

Departure

Time 2026-05-05 04:51
Airport Josep Tarradellas Barcelona-El Prat Airport (LEBL)

Arrival

Time N/A
Airport Stockholm-Arlanda Airport (ESSA)
Time Latitude Longitude Altitude Speed Heading
2026-05-05 04:39 41.29083 2.07737 23 ft 0 kts 156°
2026-05-05 04:42 41.29089 2.07734 23 ft 2 kts 156°
2026-05-05 04:42 41.29101 2.07726 23 ft 0 kts 156°
2026-05-05 04:42 41.29114 2.07719 23 ft 0 kts 156°
2026-05-05 04:43 41.29126 2.07712 23 ft 0 kts 156°
2026-05-05 04:43 41.29139 2.07704 23 ft 0 kts 155°
2026-05-05 04:43 41.29148 2.07691 23 ft 0 kts 111°
2026-05-05 04:43 41.29148 2.07673 23 ft 0 kts 67°
2026-05-05 04:44 41.29144 2.07662 23 ft 0 kts 65°
2026-05-05 04:45 41.29147 2.07673 23 ft 6 kts 65°
2026-05-05 04:45 41.29184 2.07782 23 ft 21 kts 65°
2026-05-05 04:46 41.29253 2.07982 23 ft 21 kts 65°
2026-05-05 04:46 41.29308 2.08139 23 ft 17 kts 64°
2026-05-05 04:46 41.29352 2.08261 23 ft 13 kts 66°
2026-05-05 04:46 41.29361 2.08353 23 ft 10 kts 119°
2026-05-05 04:47 41.29297 2.08418 23 ft 14 kts 151°
2026-05-05 04:47 41.29194 2.08482 23 ft 19 kts 156°
2026-05-05 04:47 41.29075 2.08552 23 ft 19 kts 155°
2026-05-05 04:47 41.28949 2.08628 23 ft 20 kts 156°
2026-05-05 04:48 41.28837 2.08629 23 ft 18 kts 232°
2026-05-05 04:48 41.28775 2.08474 23 ft 18 kts 245°
2026-05-05 04:48 41.28723 2.08324 23 ft 19 kts 246°
2026-05-05 04:48 41.28667 2.08158 23 ft 20 kts 245°
2026-05-05 04:49 41.28612 2.07997 23 ft 19 kts 245°
2026-05-05 04:49 41.28563 2.07857 23 ft 15 kts 245°
2026-05-05 04:49 41.28525 2.07747 23 ft 15 kts 246°
2026-05-05 04:49 41.28476 2.07603 23 ft 18 kts 244°
2026-05-05 04:50 41.28417 2.07475 23 ft 18 kts 213°
2026-05-05 04:50 41.28309 2.07459 23 ft 14 kts 135°
2026-05-05 04:50 41.28266 2.07542 23 ft 8 kts 86°
2026-05-05 04:50 41.28285 2.07597 23 ft 9 kts 63°
2026-05-05 04:51 41.28411 2.07964 23 ft 81 kts 65°
2026-05-05 04:51 41.28739 2.08926 23 ft 147 kts 66°
2026-05-05 04:51 41.29222 2.10366 183 ft 188 kts 65°
2026-05-05 04:51 41.29742 2.12036 855 ft 205 kts 69°
2026-05-05 04:52 41.30007 2.13916 1309 ft 203 kts 84°
2026-05-05 04:52 41.29874 2.15835 1868 ft 219 kts 99°
2026-05-05 04:52 41.29417 2.17850 2357 ft 238 kts 106°
2026-05-05 04:52 41.28931 2.20042 2813 ft 257 kts 103°
2026-05-05 04:53 41.28546 2.22388 3482 ft 264 kts 100°
2026-05-05 04:53 41.28234 2.24822 4282 ft 271 kts 99°
2026-05-05 04:53 41.27951 2.27308 5070 ft 273 kts 99°
2026-05-05 04:53 41.27672 2.29805 5834 ft 276 kts 99°
2026-05-05 04:54 41.27401 2.32340 6608 ft 279 kts 99°
2026-05-05 04:54 41.27130 2.34904 7380 ft 283 kts 99°
2026-05-05 04:54 41.26854 2.37509 8155 ft 287 kts 99°
2026-05-05 04:54 41.26575 2.40147 8930 ft 291 kts 100°
2026-05-05 04:55 41.26291 2.42823 9706 ft 295 kts 101°
2026-05-05 04:55 41.26003 2.45533 10497 ft 298 kts 101°
2026-05-05 04:55 41.25712 2.48266 11289 ft 301 kts 101°
2026-05-05 04:55 41.25418 2.51034 12082 ft 305 kts 101°
2026-05-05 04:56 41.25121 2.53824 12869 ft 308 kts 101°
2026-05-05 04:56 41.25169 2.56712 13492 ft 322 kts 80°
2026-05-05 04:56 41.26084 2.59438 14205 ft 328 kts 58°
2026-05-05 04:56 41.27484 2.61845 14963 ft 333 kts 50°
2026-05-05 04:57 41.28927 2.64285 15653 ft 340 kts 52°
2026-05-05 04:57 41.30339 2.66839 16343 ft 347 kts 51°
2026-05-05 04:57 41.32120 2.68999 16969 ft 350 kts 29°
2026-05-05 04:57 41.34333 2.70258 17711 ft 347 kts 13°
2026-05-05 04:58 41.36664 2.71151 18340 ft 355 kts 11°
2026-05-05 04:58 41.39053 2.72191 18834 ft 368 kts 16°
2026-05-05 04:58 41.41486 2.73360 19333 ft 379 kts 17°
2026-05-05 04:58 41.43986 2.74579 19833 ft 388 kts 16°
2026-05-05 04:59 41.46549 2.75825 20324 ft 397 kts 16°
2026-05-05 04:59 41.49159 2.77154 20750 ft 410 kts 21°
2026-05-05 04:59 41.51555 2.79323 21114 ft 426 kts 41°
2026-05-05 04:59 41.53363 2.82481 21538 ft 436 kts 60°
2026-05-05 05:00 41.54600 2.86183 22035 ft 441 kts 67°
2026-05-05 05:00 41.55929 2.89901 22462 ft 448 kts 63°
2026-05-05 05:00 41.57420 2.93576 22895 ft 454 kts 61°
2026-05-05 05:00 41.58942 2.97291 23317 ft 460 kts 62°
2026-05-05 05:01 41.60470 3.01057 23741 ft 464 kts 62°
2026-05-05 05:01 41.62008 3.04853 24163 ft 468 kts 62°
2026-05-05 05:01 41.63560 3.08690 24582 ft 472 kts 62°
2026-05-05 05:01 41.65117 3.12546 25000 ft 475 kts 62°
2026-05-05 05:02 41.66685 3.16434 25419 ft 477 kts 62°
2026-05-05 05:02 41.68248 3.20337 25834 ft 479 kts 63°
2026-05-05 05:02 41.69619 3.24398 26256 ft 480 kts 68°
2026-05-05 05:02 41.70938 3.28482 26675 ft 481 kts 67°
2026-05-05 05:03 41.72300 3.32564 27095 ft 482 kts 67°
2026-05-05 05:03 41.73665 3.36651 27514 ft 482 kts 67°
2026-05-05 05:03 41.75029 3.40740 27934 ft 482 kts 67°
2026-05-05 05:03 41.76388 3.44822 28353 ft 482 kts 66°
2026-05-05 05:04 41.77747 3.48913 28789 ft 481 kts 66°
2026-05-05 05:04 41.79099 3.52988 29207 ft 480 kts 66°
2026-05-05 05:04 41.80447 3.57054 29617 ft 478 kts 66°
2026-05-05 05:04 41.81791 3.61118 29985 ft 478 kts 66°
2026-05-05 05:05 41.83137 3.65191 30260 ft 480 kts 66°
2026-05-05 05:05 41.84487 3.69283 30541 ft 482 kts 66°
2026-05-05 05:05 41.85841 3.73393 30818 ft 483 kts 66°
2026-05-05 05:05 41.87197 3.77518 31098 ft 485 kts 66°
2026-05-05 05:06 41.88553 3.81648 31376 ft 486 kts 66°
2026-05-05 05:06 41.89913 3.85793 31652 ft 487 kts 66°
2026-05-05 05:06 41.91274 3.89950 31931 ft 488 kts 66°
2026-05-05 05:06 41.92632 3.94105 32210 ft 488 kts 66°
2026-05-05 05:07 41.93993 3.98278 32486 ft 489 kts 66°
2026-05-05 05:07 41.95356 4.02460 32765 ft 490 kts 66°
2026-05-05 05:07 41.96714 4.06637 33042 ft 490 kts 66°
2026-05-05 05:07 41.98075 4.10828 33318 ft 490 kts 66°
2026-05-05 05:08 41.99435 4.15020 33596 ft 491 kts 66°
2026-05-05 05:08 42.00795 4.19219 33874 ft 491 kts 66°
2026-05-05 05:08 42.02151 4.23415 34150 ft 491 kts 66°
2026-05-05 05:08 42.03504 4.27609 34427 ft 490 kts 66°
2026-05-05 05:09 42.04857 4.31808 34704 ft 490 kts 67°
2026-05-05 05:09 42.06207 4.36003 34981 ft 490 kts 67°
2026-05-05 05:09 42.07588 4.40181 35248 ft 490 kts 63°
2026-05-05 05:09 42.09462 4.43960 35453 ft 486 kts 45°
2026-05-05 05:10 42.12003 4.46883 35767 ft 477 kts 31°
2026-05-05 05:10 42.14693 4.49452 36088 ft 477 kts 35°
2026-05-05 05:10 42.17167 4.52438 36357 ft 478 kts 41°
2026-05-05 05:10 42.19592 4.55473 36646 ft 476 kts 39°
2026-05-05 05:11 42.22044 4.58435 36914 ft 474 kts 39°
2026-05-05 05:11 42.24497 4.61392 37181 ft 473 kts 39°
2026-05-05 05:11 42.26939 4.64341 37450 ft 472 kts 39°
2026-05-05 05:11 42.29371 4.67283 37719 ft 470 kts 39°
2026-05-05 05:12 42.31792 4.70216 37920 ft 470 kts 39°
2026-05-05 05:12 42.36692 4.76161 37914 ft 479 kts 39°
2026-05-05 05:13 42.41681 4.82228 37911 ft 487 kts 39°
2026-05-05 05:13 42.46743 4.88396 37911 ft 495 kts 40°
2026-05-05 05:14 42.51885 4.94678 37905 ft 501 kts 40°
2026-05-05 05:14 42.57027 5.00974 37906 ft 496 kts 40°
2026-05-05 05:15 42.62085 5.07180 37906 ft 491 kts 41°
2026-05-05 05:15 42.67130 5.13384 37905 ft 491 kts 41°
2026-05-05 05:16 42.72177 5.19606 37904 ft 491 kts 41°
2026-05-05 05:16 42.77216 5.25833 37904 ft 491 kts 41°
2026-05-05 05:17 42.82250 5.32068 37905 ft 491 kts 41°
2026-05-05 05:17 42.87286 5.38319 37905 ft 491 kts 41°
2026-05-05 05:18 42.92314 5.44574 37905 ft 491 kts 41°
2026-05-05 05:18 42.97343 5.50845 37905 ft 491 kts 41°
2026-05-05 05:19 43.02360 5.57117 37905 ft 491 kts 41°
2026-05-05 05:19 43.07386 5.63412 37905 ft 491 kts 41°
2026-05-05 05:20 43.12399 5.69707 37906 ft 491 kts 41°
2026-05-05 05:20 43.17411 5.76016 37906 ft 491 kts 41°
2026-05-05 05:21 43.22423 5.82340 37906 ft 491 kts 41°
2026-05-05 05:21 43.27429 5.88670 37906 ft 491 kts 41°
2026-05-05 05:22 43.32429 5.95009 37905 ft 491 kts 41°
2026-05-05 05:22 43.37441 6.01336 37905 ft 490 kts 39°
2026-05-05 05:22 43.40245 6.03946 37902 ft 486 kts 23°
2026-05-05 05:23 43.43426 6.05332 37912 ft 478 kts
2026-05-05 05:23 43.46702 6.05355 37933 ft 469 kts 349°
2026-05-05 05:23 43.49931 6.04840 37916 ft 469 kts 351°
2026-05-05 05:23 43.53196 6.05029 37929 ft 475 kts
2026-05-05 05:24 43.56455 6.05785 37921 ft 477 kts
2026-05-05 05:24 43.63088 6.06428 37935 ft 482 kts
2026-05-05 05:25 43.69767 6.07100 37934 ft 483 kts
2026-05-05 05:25 43.76449 6.07839 37926 ft 484 kts
2026-05-05 05:25 43.79703 6.09044 37924 ft 489 kts 22°
2026-05-05 05:26 43.82675 6.11328 37936 ft 491 kts 32°
2026-05-05 05:26 43.88670 6.15745 37924 ft 490 kts 23°
2026-05-05 05:27 43.94784 6.19861 37928 ft 490 kts 25°
2026-05-05 05:27 44.03926 6.26124 37922 ft 490 kts 25°
2026-05-05 05:28 44.10023 6.30311 37917 ft 490 kts 25°
2026-05-05 05:28 44.16120 6.34508 37901 ft 489 kts 25°
2026-05-05 05:29 44.22208 6.38707 37910 ft 490 kts 25°
2026-05-05 05:29 44.28298 6.42916 37911 ft 490 kts 25°
2026-05-05 05:30 44.34391 6.47138 37891 ft 489 kts 25°
2026-05-05 05:30 44.40485 6.51369 37902 ft 490 kts 25°
2026-05-05 05:31 44.46570 6.55605 37910 ft 490 kts 25°
2026-05-05 05:31 44.52658 6.59851 37923 ft 490 kts 25°
2026-05-05 05:32 44.58742 6.64104 37935 ft 490 kts 25°
2026-05-05 05:32 44.64823 6.68365 37938 ft 490 kts 25°
2026-05-05 05:33 44.70898 6.72633 37933 ft 488 kts 25°
2026-05-05 05:33 44.76952 6.76894 37948 ft 488 kts 25°
2026-05-05 05:34 44.83363 6.79508 37947 ft 481 kts 357°
2026-05-05 05:34 44.86650 6.78972 37947 ft 476 kts 345°
2026-05-05 05:34 44.89901 6.78148 37923 ft 477 kts 350°
2026-05-05 05:35 44.96550 6.77990 37945 ft 480 kts 354°
2026-05-05 05:35 45.03188 6.77519 37910 ft 479 kts 354°
2026-05-05 05:36 45.09854 6.77077 37911 ft 481 kts 354°
2026-05-05 05:36 45.16510 6.76635 37914 ft 480 kts 354°
2026-05-05 05:37 45.23177 6.76192 37911 ft 481 kts 354°
2026-05-05 05:37 45.29837 6.75748 37915 ft 480 kts 354°
2026-05-05 05:38 45.36502 6.75303 37915 ft 480 kts 354°
2026-05-05 05:38 45.43167 6.74878 37910 ft 481 kts 356°
2026-05-05 05:39 45.46498 6.75303 37907 ft 487 kts 11°
2026-05-05 05:39 45.49651 6.77047 37915 ft 490 kts 30°
2026-05-05 05:39 45.55062 6.82837 37911 ft 485 kts 32°
2026-05-05 05:40 45.61012 6.87295 37927 ft 484 kts 28°
2026-05-05 05:40 45.66804 6.92187 37928 ft 485 kts 29°
2026-05-05 05:41 45.72615 6.97036 37930 ft 485 kts 29°
2026-05-05 05:41 45.78418 7.01891 37931 ft 484 kts 29°
2026-05-05 05:42 45.84212 7.06749 37934 ft 484 kts 29°
2026-05-05 05:42 45.90007 7.11624 37933 ft 484 kts 29°
2026-05-05 05:43 45.95793 7.16508 37934 ft 484 kts 29°
2026-05-05 05:43 46.01583 7.21406 37933 ft 484 kts 29°
2026-05-05 05:44 46.07363 7.26309 37933 ft 484 kts 29°
2026-05-05 05:44 46.13143 7.31223 37933 ft 484 kts 29°
2026-05-05 05:45 46.18922 7.36149 37933 ft 484 kts 29°
2026-05-05 05:45 46.24697 7.41083 37933 ft 484 kts 29°
2026-05-05 05:46 46.30472 7.46030 37933 ft 484 kts 29°
2026-05-05 05:46 46.36246 7.50988 37934 ft 483 kts 30°
2026-05-05 05:47 46.42008 7.55948 37935 ft 483 kts 30°
2026-05-05 05:47 46.47767 7.60918 37935 ft 483 kts 30°
2026-05-05 05:48 46.53507 7.65886 37929 ft 479 kts 31°
2026-05-05 05:48 46.59222 7.70841 37933 ft 479 kts 31°
2026-05-05 05:49 46.64867 7.75942 37933 ft 478 kts 32°
2026-05-05 05:49 46.70496 7.81051 37935 ft 478 kts 32°
2026-05-05 05:50 46.76119 7.86165 37935 ft 478 kts 32°
2026-05-05 05:50 46.81748 7.91295 37934 ft 479 kts 32°
2026-05-05 05:51 46.87377 7.96439 37937 ft 479 kts 32°
2026-05-05 05:51 46.93002 8.01593 37943 ft 478 kts 32°
2026-05-05 05:52 46.98624 8.06756 37937 ft 478 kts 32°
2026-05-05 05:52 47.04246 8.11932 37936 ft 478 kts 32°
2026-05-05 05:53 47.09863 8.17118 37938 ft 478 kts 32°
2026-05-05 05:53 47.15475 8.22311 37938 ft 478 kts 32°
2026-05-05 05:54 47.21088 8.27518 37938 ft 478 kts 32°
2026-05-05 05:54 47.26694 8.32732 37937 ft 478 kts 32°
2026-05-05 05:55 47.32285 8.37946 37933 ft 477 kts 32°
2026-05-05 05:55 47.37884 8.43177 37934 ft 479 kts 32°
2026-05-05 05:56 47.43503 8.48446 37933 ft 479 kts 32°
2026-05-05 05:56 47.49115 8.53719 37933 ft 479 kts 32°
2026-05-05 05:57 47.54727 8.59006 37929 ft 479 kts 32°
2026-05-05 05:57 47.60335 8.64302 37926 ft 479 kts 32°
2026-05-05 05:58 47.65942 8.69612 37919 ft 479 kts 32°
2026-05-05 05:58 47.71547 8.74933 37916 ft 479 kts 32°
2026-05-05 05:59 47.77151 8.80268 37911 ft 479 kts 33°
2026-05-05 05:59 47.82744 8.85605 37904 ft 479 kts 33°
2026-05-05 06:00 47.88340 8.90959 37898 ft 479 kts 33°
2026-05-05 06:00 47.93933 8.96325 37899 ft 479 kts 33°
2026-05-05 06:01 47.99522 9.01700 37899 ft 479 kts 33°
2026-05-05 06:01 48.05108 9.07087 37881 ft 479 kts 33°
2026-05-05 06:02 48.10691 9.12484 37886 ft 479 kts 33°
2026-05-05 06:02 48.16322 9.17783 37889 ft 479 kts 27°
2026-05-05 06:03 48.19446 9.19422 37879 ft 477 kts
2026-05-05 06:03 48.22736 9.19713 37897 ft 475 kts 356°
2026-05-05 06:03 48.29300 9.20255 37890 ft 476 kts
2026-05-05 06:04 48.35857 9.21524 37882 ft 476 kts
2026-05-05 06:04 48.42450 9.22623 37732 ft 481 kts
2026-05-05 06:05 48.45764 9.23185 37546 ft 480 kts
2026-05-05 06:05 48.49080 9.23748 37338 ft 481 kts
2026-05-05 06:05 48.52392 9.24311 37074 ft 481 kts
2026-05-05 06:05 48.55712 9.24875 36872 ft 481 kts
2026-05-05 06:06 48.62336 9.26002 36874 ft 480 kts
2026-05-05 06:06 48.68954 9.27006 36875 ft 479 kts
2026-05-05 06:07 48.75577 9.28016 36875 ft 480 kts
2026-05-05 06:07 48.82202 9.29031 36874 ft 480 kts
2026-05-05 06:08 48.88825 9.30048 36876 ft 479 kts
2026-05-05 06:08 48.95449 9.31068 36876 ft 479 kts
2026-05-05 06:09 49.02070 9.32091 36878 ft 479 kts
2026-05-05 06:09 49.08626 9.33106 36880 ft 474 kts
2026-05-05 06:10 49.15184 9.34124 36876 ft 474 kts
2026-05-05 06:10 49.21727 9.35142 36876 ft 474 kts
2026-05-05 06:11 49.28281 9.36165 36876 ft 474 kts
2026-05-05 06:11 49.34834 9.37190 36876 ft 474 kts
2026-05-05 06:12 49.41381 9.38218 36876 ft 474 kts
2026-05-05 06:12 49.47932 9.39248 36875 ft 474 kts
2026-05-05 06:13 49.54484 9.40282 36874 ft 474 kts
2026-05-05 06:13 49.61078 9.41325 36871 ft 481 kts
2026-05-05 06:14 49.67717 9.42380 36871 ft 480 kts
2026-05-05 06:14 49.74346 9.43438 36870 ft 480 kts
2026-05-05 06:15 49.80979 9.44498 36871 ft 481 kts
2026-05-05 06:15 49.87619 9.45563 36866 ft 481 kts
2026-05-05 06:16 49.94252 9.46630 36869 ft 480 kts
2026-05-05 06:16 50.00888 9.47700 36873 ft 481 kts
2026-05-05 06:17 50.07524 9.48787 36868 ft 481 kts
2026-05-05 06:17 50.14056 9.51101 36872 ft 484 kts 11°
2026-05-05 06:18 50.20616 9.53295 36871 ft 483 kts
2026-05-05 06:18 50.27175 9.55494 36870 ft 483 kts
2026-05-05 06:19 50.33737 9.57703 36871 ft 483 kts
2026-05-05 06:19 50.40295 9.59917 36867 ft 483 kts
2026-05-05 06:20 50.46852 9.62137 36862 ft 483 kts
2026-05-05 06:20 50.53407 9.64362 36866 ft 483 kts
2026-05-05 06:21 50.59963 9.66594 36862 ft 483 kts
2026-05-05 06:21 50.66547 9.68842 36893 ft 486 kts
2026-05-05 06:22 50.73144 9.71102 36895 ft 486 kts
2026-05-05 06:22 50.79729 9.73363 36899 ft 486 kts
2026-05-05 06:23 50.86314 9.75631 36904 ft 486 kts
2026-05-05 06:23 50.92903 9.77907 36904 ft 486 kts
2026-05-05 06:24 50.99489 9.80189 36904 ft 486 kts
2026-05-05 06:24 51.06073 9.82476 36904 ft 486 kts
2026-05-05 06:25 51.12660 9.84771 36905 ft 486 kts
2026-05-05 06:25 51.19241 9.87071 36906 ft 485 kts
2026-05-05 06:26 51.25577 9.90711 36914 ft 491 kts 29°
2026-05-05 06:26 51.31354 9.96480 36906 ft 491 kts 28°
2026-05-05 06:27 51.40195 10.04707 36902 ft 490 kts 28°
2026-05-05 06:28 51.46065 10.10217 36904 ft 490 kts 28°
2026-05-05 06:28 51.51921 10.15731 36904 ft 490 kts 29°
2026-05-05 06:29 51.57783 10.21267 36904 ft 490 kts 29°
2026-05-05 06:29 51.63640 10.26815 36904 ft 490 kts 29°
2026-05-05 06:30 51.69495 10.32378 36904 ft 490 kts 29°
2026-05-05 06:30 51.75346 10.37954 36904 ft 490 kts 29°
2026-05-05 06:31 51.81195 10.43543 36905 ft 490 kts 28°
2026-05-05 06:31 51.87036 10.49146 36904 ft 489 kts 29°
2026-05-05 06:32 51.92882 10.54769 36904 ft 490 kts 29°
2026-05-05 06:32 51.98722 10.60402 36904 ft 490 kts 29°
2026-05-05 06:33 52.04559 10.66051 36904 ft 490 kts 29°
2026-05-05 06:33 52.10393 10.71714 36904 ft 490 kts 29°
2026-05-05 06:34 52.16226 10.77393 36905 ft 490 kts 29°
2026-05-05 06:34 52.22053 10.83084 36904 ft 490 kts 29°
2026-05-05 06:35 52.27880 10.88793 36905 ft 490 kts 29°
2026-05-05 06:35 52.33703 10.94516 36905 ft 490 kts 29°
2026-05-05 06:36 52.39526 11.00256 36905 ft 490 kts 29°
2026-05-05 06:36 52.45338 11.06004 36904 ft 489 kts 29°
2026-05-05 06:37 52.51153 11.11772 36904 ft 489 kts 29°
2026-05-05 06:37 52.56962 11.17550 36903 ft 489 kts 29°
2026-05-05 06:38 52.62758 11.23338 36904 ft 489 kts 29°
2026-05-05 06:38 52.68552 11.29140 36904 ft 488 kts 29°
2026-05-05 06:39 52.74344 11.34958 36905 ft 488 kts 29°
2026-05-05 06:39 52.80148 11.40807 36922 ft 493 kts 29°
2026-05-05 06:40 52.85991 11.46713 36921 ft 493 kts 29°
2026-05-05 06:40 52.91823 11.52627 36914 ft 493 kts 29°
2026-05-05 06:41 52.97660 11.58566 36921 ft 493 kts 29°
2026-05-05 06:41 53.03490 11.64516 36929 ft 493 kts 29°
2026-05-05 06:42 53.09321 11.70486 36931 ft 493 kts 29°
2026-05-05 06:42 53.15143 11.76466 36935 ft 493 kts 29°
2026-05-05 06:43 53.20956 11.82457 36935 ft 493 kts 29°
2026-05-05 06:43 53.26773 11.88472 36935 ft 493 kts 29°
2026-05-05 06:44 53.32584 11.94498 36935 ft 493 kts 30°
2026-05-05 06:44 53.38399 12.00550 36935 ft 493 kts 30°
2026-05-05 06:45 53.44203 12.06609 36935 ft 493 kts 30°
2026-05-05 06:45 53.50008 12.12689 36935 ft 493 kts 30°
2026-05-05 06:46 53.55811 12.18787 36935 ft 493 kts 30°
2026-05-05 06:46 53.61611 12.24902 36936 ft 493 kts 30°
2026-05-05 06:47 53.67398 12.31023 36935 ft 493 kts 30°
2026-05-05 06:47 53.73190 12.37171 36937 ft 493 kts 30°
2026-05-05 06:48 53.78983 12.43338 36938 ft 493 kts 30°
2026-05-05 06:48 53.84768 12.49519 36936 ft 493 kts 30°
2026-05-05 06:49 53.90551 12.55717 36936 ft 493 kts 30°
2026-05-05 06:49 53.96336 12.61938 36937 ft 493 kts 30°
2026-05-05 06:50 54.02116 12.68174 36936 ft 493 kts 30°
2026-05-05 06:50 54.07895 12.74431 36935 ft 494 kts 30°
2026-05-05 06:51 54.13682 12.80717 36934 ft 494 kts 30°
2026-05-05 06:51 54.19465 12.87019 36933 ft 494 kts 30°
2026-05-05 06:52 54.25245 12.93340 36939 ft 494 kts 30°
2026-05-05 06:52 54.31020 12.99677 36940 ft 494 kts 30°
2026-05-05 06:53 54.36790 13.06029 36937 ft 494 kts 30°
2026-05-05 06:53 54.42557 13.12401 36939 ft 494 kts 30°
2026-05-05 06:54 54.48324 13.18793 36946 ft 494 kts 30°
2026-05-05 06:54 54.54080 13.25195 36942 ft 494 kts 30°
2026-05-05 06:55 54.59839 13.31623 36944 ft 494 kts 30°
2026-05-05 06:55 54.65579 13.38050 36948 ft 491 kts 30°
2026-05-05 06:56 54.71296 13.44475 36946 ft 492 kts 30°
2026-05-05 06:56 54.77011 13.50919 36942 ft 491 kts 30°
2026-05-05 06:57 54.82721 13.57379 36942 ft 491 kts 30°
2026-05-05 06:57 54.88432 13.63863 36936 ft 492 kts 30°
2026-05-05 06:58 54.94137 13.70363 36935 ft 492 kts 30°
2026-05-05 06:58 54.99843 13.76885 36933 ft 492 kts 30°
2026-05-05 06:59 55.05545 13.83425 36936 ft 492 kts 30°
2026-05-05 06:59 55.11247 13.89990 36935 ft 492 kts 30°
2026-05-05 07:00 55.16938 13.96563 36935 ft 492 kts 30°
2026-05-05 07:00 55.22633 14.03164 36934 ft 492 kts 31°
2026-05-05 07:01 55.28325 14.09785 36934 ft 492 kts 31°
2026-05-05 07:01 55.34006 14.16416 36934 ft 492 kts 31°
2026-05-05 07:02 55.39683 14.23066 36935 ft 492 kts 30°
2026-05-05 07:02 55.45362 14.29742 36935 ft 492 kts 30°
2026-05-05 07:03 55.51029 14.36426 36934 ft 491 kts 31°
2026-05-05 07:03 55.56691 14.43128 36934 ft 492 kts 31°
2026-05-05 07:04 55.62359 14.49862 36934 ft 492 kts 31°
2026-05-05 07:04 55.68020 14.56611 36934 ft 492 kts 31°
2026-05-05 07:05 55.73671 14.63371 36933 ft 492 kts 31°
2026-05-05 07:05 55.79326 14.70161 36933 ft 492 kts 31°
2026-05-05 07:06 55.84974 14.76967 36934 ft 492 kts 31°
2026-05-05 07:06 55.90617 14.83790 36935 ft 491 kts 31°
2026-05-05 07:07 55.96269 14.90650 36934 ft 493 kts 31°
2026-05-05 07:07 56.01913 14.97524 36933 ft 492 kts 31°
2026-05-05 07:08 56.07541 15.04403 36932 ft 490 kts 31°
2026-05-05 07:08 56.13160 15.11297 36933 ft 491 kts 31°
2026-05-05 07:09 56.18779 15.18215 36928 ft 491 kts 31°
2026-05-05 07:09 56.24386 15.25097 36922 ft 485 kts 28°
2026-05-05 07:09 56.27379 15.27704 36902 ft 475 kts 13°
2026-05-05 07:10 56.30590 15.28808 36918 ft 470 kts
2026-05-05 07:10 56.37013 15.30794 36909 ft 472 kts
2026-05-05 07:11 56.43421 15.33307 36902 ft 472 kts
2026-05-05 07:11 56.49841 15.35774 36885 ft 474 kts
2026-05-05 07:12 56.56288 15.38263 36881 ft 475 kts
2026-05-05 07:12 56.62739 15.40762 36876 ft 475 kts
2026-05-05 07:13 56.69194 15.43270 36876 ft 475 kts
2026-05-05 07:13 56.75648 15.45787 36876 ft 476 kts
2026-05-05 07:14 56.82114 15.48318 36876 ft 476 kts
2026-05-05 07:14 56.88578 15.50856 36876 ft 476 kts
2026-05-05 07:15 56.95037 15.53402 36876 ft 476 kts
2026-05-05 07:15 57.01495 15.55957 36876 ft 476 kts
2026-05-05 07:16 57.07964 15.58524 36876 ft 476 kts
2026-05-05 07:16 57.14425 15.61099 36867 ft 477 kts
2026-05-05 07:17 57.20901 15.63686 36862 ft 478 kts
2026-05-05 07:17 57.27384 15.66289 36859 ft 477 kts
2026-05-05 07:18 57.33857 15.68896 36847 ft 478 kts
2026-05-05 07:18 57.40352 15.71520 36850 ft 478 kts
2026-05-05 07:19 57.46837 15.74151 36852 ft 478 kts
2026-05-05 07:19 57.53319 15.76790 36847 ft 479 kts
2026-05-05 07:20 57.59819 15.79445 36847 ft 479 kts
2026-05-05 07:20 57.66309 15.82107 36847 ft 479 kts
2026-05-05 07:21 57.72799 15.84778 36847 ft 479 kts
2026-05-05 07:21 57.79282 15.87456 36847 ft 479 kts
2026-05-05 07:22 57.85670 15.90104 36827 ft 459 kts
2026-05-05 07:22 57.91542 15.93503 36817 ft 446 kts 24°
2026-05-05 07:22 57.94067 15.96863 36849 ft 446 kts 35°
2026-05-05 07:23 57.96427 16.00625 36842 ft 447 kts 34°
2026-05-05 07:23 58.01289 16.07886 36835 ft 446 kts 33°
2026-05-05 07:23 58.03722 16.11501 36683 ft 447 kts 33°
2026-05-05 07:24 58.06154 16.15122 36230 ft 446 kts 33°
2026-05-05 07:24 58.08584 16.18750 35744 ft 447 kts 33°
2026-05-05 07:24 58.11012 16.22382 35258 ft 447 kts 33°
2026-05-05 07:24 58.13449 16.26034 34771 ft 448 kts 33°
2026-05-05 07:25 58.15886 16.29690 34284 ft 448 kts 33°
2026-05-05 07:25 58.18318 16.33349 33796 ft 449 kts 33°
2026-05-05 07:25 58.20759 16.37023 33290 ft 450 kts 32°
2026-05-05 07:25 58.23208 16.40721 32788 ft 451 kts 32°
2026-05-05 07:26 58.25659 16.44428 32285 ft 452 kts 32°
2026-05-05 07:26 58.28025 16.48385 31746 ft 459 kts 41°
2026-05-05 07:26 58.30059 16.53095 31238 ft 465 kts 50°
2026-05-05 07:26 58.31939 16.58081 30752 ft 465 kts 51°
2026-05-05 07:27 58.33851 16.63028 30233 ft 466 kts 50°
2026-05-05 07:27 58.35784 16.67975 29708 ft 467 kts 50°
2026-05-05 07:27 58.37718 16.72940 29181 ft 468 kts 50°
2026-05-05 07:27 58.39656 16.77927 28618 ft 471 kts 50°
2026-05-05 07:28 58.41601 16.82939 28038 ft 473 kts 50°
2026-05-05 07:28 58.43553 16.87988 27460 ft 475 kts 50°
2026-05-05 07:28 58.45510 16.93056 26885 ft 477 kts 50°
2026-05-05 07:28 58.47474 16.98153 26308 ft 478 kts 50°
2026-05-05 07:29 58.49445 17.03278 25732 ft 479 kts 50°
2026-05-05 07:29 58.51410 17.08403 25159 ft 480 kts 50°
2026-05-05 07:29 58.53381 17.13552 24586 ft 481 kts 50°
2026-05-05 07:29 58.55357 17.18725 24011 ft 482 kts 51°
2026-05-05 07:30 58.57328 17.23895 23438 ft 482 kts 51°
2026-05-05 07:30 58.61260 17.34246 22359 ft 480 kts 51°
2026-05-05 07:30 58.63209 17.39393 21928 ft 476 kts 51°
2026-05-05 07:31 58.65140 17.44501 21494 ft 472 kts 51°
2026-05-05 07:31 58.67050 17.49568 21057 ft 463 kts 51°
2026-05-05 07:31 58.68906 17.54500 20614 ft 451 kts 51°
2026-05-05 07:31 58.70713 17.59315 20170 ft 439 kts 51°
2026-05-05 07:32 58.72472 17.64008 19726 ft 429 kts 51°
2026-05-05 07:32 58.74188 17.68598 19283 ft 419 kts 51°
2026-05-05 07:32 58.75883 17.73136 18849 ft 417 kts 51°
2026-05-05 07:32 58.77561 17.77640 18415 ft 414 kts 51°
2026-05-05 07:33 58.79230 17.82129 17977 ft 411 kts 51°
2026-05-05 07:33 58.80894 17.86566 17536 ft 407 kts 49°
2026-05-05 07:33 58.82907 17.90246 17057 ft 393 kts 28°
2026-05-05 07:33 58.85289 17.92522 16678 ft 377 kts 14°
2026-05-05 07:34 58.87710 17.94373 16283 ft 374 kts 15°
2026-05-05 07:34 58.90065 17.96455 15873 ft 372 kts 18°
2026-05-05 07:34 58.92376 17.98644 15462 ft 369 kts 18°
2026-05-05 07:34 58.94659 18.00809 15052 ft 364 kts 18°
2026-05-05 07:35 58.96916 18.02954 14642 ft 360 kts 18°
2026-05-05 07:35 58.99151 18.05076 14232 ft 356 kts 18°
2026-05-05 07:35 59.01352 18.07170 13824 ft 352 kts 18°
2026-05-05 07:35 59.03534 18.09250 13414 ft 347 kts 18°
2026-05-05 07:36 59.05682 18.11299 13008 ft 343 kts 18°
2026-05-05 07:36 59.07804 18.13327 12601 ft 339 kts 18°
2026-05-05 07:36 59.09928 18.15138 12166 ft 328 kts
2026-05-05 07:36 59.12104 18.15822 11792 ft 311 kts 354°
2026-05-05 07:37 59.14235 18.15891 11427 ft 304 kts 352°
2026-05-05 07:37 59.16339 18.16011 11044 ft 303 kts 353°
2026-05-05 07:37 59.18430 18.16223 10664 ft 301 kts 355°
2026-05-05 07:37 59.20504 18.16465 10284 ft 298 kts 355°
2026-05-05 07:38 59.22563 18.16704 9930 ft 295 kts 355°
2026-05-05 07:38 59.24591 18.16941 9674 ft 290 kts 355°
2026-05-05 07:38 59.26606 18.17176 9420 ft 291 kts 355°
2026-05-05 07:38 59.28612 18.17414 9166 ft 289 kts 355°
2026-05-05 07:39 59.30611 18.17649 8913 ft 288 kts 356°
2026-05-05 07:39 59.32597 18.17883 8658 ft 286 kts 356°
2026-05-05 07:39 59.34576 18.18119 8404 ft 285 kts 356°
2026-05-05 07:39 59.36548 18.18351 8148 ft 284 kts 356°
2026-05-05 07:40 59.38510 18.18583 7893 ft 284 kts 356°
2026-05-05 07:40 59.40470 18.18817 7640 ft 282 kts 356°
2026-05-05 07:40 59.42364 18.19041 7394 ft 279 kts 356°
2026-05-05 07:40 59.44334 18.19276 7133 ft 275 kts 356°
2026-05-05 07:41 59.46232 18.19504 6883 ft 274 kts 356°
2026-05-05 07:41 59.48127 18.19730 6632 ft 273 kts 356°
2026-05-05 07:41 59.50009 18.19954 6382 ft 270 kts 356°
2026-05-05 07:41 59.51867 18.20176 6132 ft 267 kts 356°
2026-05-05 07:42 59.53709 18.20457 5880 ft 266 kts
2026-05-05 07:42 59.55514 18.21099 5646 ft 262 kts
2026-05-05 07:42 59.57277 18.21788 5399 ft 257 kts
2026-05-05 07:42 59.59030 18.22445 5154 ft 256 kts
2026-05-05 07:43 59.60774 18.23089 4912 ft 255 kts
2026-05-05 07:43 59.62510 18.23724 4666 ft 254 kts
2026-05-05 07:43 59.64243 18.24357 4421 ft 254 kts